sat.trackr.live / text

‹ back to catalog

STARLINK-3573

NORAD 51794 · 2022-017AC

PAYLOAD ACTIVE UNKNOWN

§ Identity

Operator
Country
US
Launch date
2022-02-25
Launch site
AFWTR
Launch vehicle
Mass (kg)
RCS (m²)

Purposes: comms

External: N2YO · Heavens-Above · Gunter

§ Orbital elements

Epoch: 2026-05-25T06:00:02.000160Z

Period
92.73 min
Inclination
53.2176°
Eccentricity
0.0001188
Mean motion
15.52961906 rev/d
Perigee alt
407.3 km
Apogee alt
408.9 km
Semi-major
6,786.2 km
B*
1.2754e-2
RAAN
358.9146°
Arg perigee
78.1881°
Mean anomaly
289.4116°
Rev number
578

§ Raw data

STARLINK-35731 51794U 22017AC  26145.25002315  .00875691  00000+0  12754-1 0  99992 51794  53.2176 358.9146 0001188  78.1881 289.4116 15.52961906  5784

JSON: /api/v1/satellites/51794 · /tle

For live sub-satellite position, see the globe view (requires WebGL).

§ Visibility from observer

Set your observer location to see the next 7 days of passes ≥ 10°. The values pass through the URL so the page stays shareable.

No JS? Fill the form by hand. The geolocation button needs JavaScript.